Zurück zum Katalog

STARLINK-35760

AktivKommunikationVLEO
NORAD 66274·PAYLOAD·🇺🇸 United States

Gestartet Oct 31, 2025 von Vandenberg Space Force Base

Loading…

Nächste Überflüge (nächste 24 Stunden)

TLE

AktuellSource: CelesTrak SupGP

Epoche: Sep 15, 2026, 03:07 UTC

1 66274C 25247K   26258.13034722  .00026200  00000+0  77437-3 0  2588
2 66274  53.1606  28.4875 0001229  88.5625 158.4883 15.34366187    12

Verfolge STARLINK-35760 in Echtzeit mit AllMySat

Download on the App Store